RH
11 13 14 14 14 11 10 9 9 11 10 12 16 16 16 18 19 20 20 24 25 29 32 37 45 49 50 51 60 65 68 68 69 70 70 74 76 78 78 81 81 82 86 89 94 90 87 83 81
11 13 14 16 13 11 9 9 10 10 14 14 16 17 18 18 19 19 20 23 28 30 34 37 40 46 48 47 55 59 62 66 66 69 71 65 71 75 79 81 78 79 79 85 90 92 90 85 85
11 13 15 14 12 11 10 10 9 12 14 16 19 19 21 20 19 20 19 24 28 30 33 35 39 45 48 46 50 55 58 60 61 64 61 57 63 72 75 79 81 81 79 79 78 80 85 86 84
14 15 14 13 12 12 11 12 13 14 14 16 19 21 21 20 19 20 21 26 30 31 32 36 39 43 48 47 46 52 56 56 51 53 56 53 60 65 73 82 83 84 81 80 82 80 80 79 81
18 17 15 15 12 13 14 13 15 15 16 17 19 18 19 19 21 23 25 28 31 31 35 38 39 43 47 47 45 45 52 53 50 50 51 52 50 54 61 71 81 82 82 81 81 79 80 80 80
26 23 17 14 12 13 14 15 17 17 17 19 20 21 20 20 22 24 27 30 31 31 35 39 40 42 45 47 44 44 48 51 51 50 48 45 42 42 50 54 64 75 79 81 81 79 79 75 79
29 27 22 19 18 17 17 18 19 18 19 21 21 22 21 21 22 24 27 31 33 33 35 41 42 42 44 44 44 46 47 48 48 44 43 44 45 41 43 41 48 58 62 66 68 76 78 73 73
30 29 24 22 21 21 22 24 24 23 23 24 24 23 22 23 22 24 27 33 35 36 38 41 42 41 44 44 44 47 47 46 41 38 38 38 39 40 37 35 37 46 49 47 47 49 59 70 63
32 30 27 25 24 23 25 26 27 27 26 26 26 25 25 25 25 27 31 34 36 37 39 40 41 43 44 46 46 48 49 48 41 34 33 36 37 39 39 36 30 27 24 24 28 32 32 36 45
32 30 26 25 26 25 25 26 27 27 28 28 28 28 28 27 27 27 30 34 35 36 38 39 41 43 45 48 48 47 44 40 38 35 35 36 34 34 34 32 27 23 20 18 17 18 19 19 23
34 30 29 28 28 27 27 28 28 27 27 27 28 28 28 29 29 31 33 35 36 37 38 38 39 43 47 48 46 42 41 37 34 34 34 35 33 31 27 24 21 19 19 19 19 18 18 18 19
34 33 33 32 32 31 29 29 28 29 26 27 29 29 28 28 29 30 33 36 37 39 40 39 38 42 44 44 41 39 38 35 34 33 33 31 29 26 24 21 19 18 17 16 14 13 13 12 13
37 34 35 35 34 33 34 32 33 30 30 29 29 30 30 30 31 32 34 37 38 38 39 38 37 37 39 41 40 38 36 33 31 31 29 28 26 24 21 20 18 17 15 13 11 9 9 8 8
41 41 41 41 39 38 37 35 37 30 33 33 32 31 31 32 33 33 33 33 33 34 34 35 35 36 37 38 38 36 35 33 32 30 29 27 26 23 21 19 18 16 14 11 10 9 8 8 7
44 45 44 43 42 43 44 44 41 36 36 33 32 33 32 32 32 32 32 32 32 32 33 33 34 35 36 36 36 36 36 35 34 32 30 28 26 23 22 21 20 18 15 13 12 11 10 9 8
40 44 43 39 38 39 41 38 38 37 38 37 34 32 31 31 31 32 32 32 32 32 32 34 34 35 35 34 35 36 36 36 35 35 33 30 28 26 24 23 21 19 17 15 14 14 13 11 10
30 23 25 25 28 30 30 26 26 30 32 32 34 36 37 36 34 33 34 34 33 33 34 34 35 35 35 36 36 37 37 37 37 36 34 32 30 29 28 26 24 22 20 18 17 16 15 14 13
34 33 32 32 33 35 35 34 34 35 36 36 38 39 39 41 41 40 40 40 40 39 39 40 40 39 38 38 38 38 38 39 40 38 36 34 32 30 29 28 26 25 24 22 20 19 17 16 16
35 33 33 32 35 37 35 35 35 36 36 38 38 38 39 43 46 46 47 46 46 46 44 43 42 42 42 42 42 43 44 43 42 40 39 36 34 33 32 31 30 28 27 25 23 21 20 19 19
37 37 38 40 42 41 37 33 31 30 32 35 39 39 38 39 39 39 46 51 51 51 51 50 49 49 49 49 48 47 47 47 45 44 44 42 41 38 36 34 32 31 30 28 27 24 23 22 21
41 42 42 40 36 31 29 25 25 25 27 29 31 34 36 37 37 38 38 39 44 49 52 54 55 56 55 53 52 52 51 49 48 49 48 47 46 45 43 40 36 34 33 31 30 28 26 25 24
40 35 34 33 33 35 29 30 23 26 28 31 32 33 33 34 36 39 42 44 47 49 52 54 55 56 57 59 58 56 55 54 54 52 51 51 50 48 46 43 41 38 37 35 33 31 29 28 28
34 32 32 32 35 37 35 37 28 34 37 39 39 40 40 41 41 41 43 45 47 49 52 55 57 59 61 64 66 64 62 61 58 58 58 58 56 54 51 47 44 42 41 39 37 36 34 32 32
34 36 35 35 33 46 36 38 40 46 53 49 45 48 47 45 45 44 44 46 50 53 54 55 59 64 67 67 70 71 70 67 65 65 63 61 59 56 53 49 46 44 44 44 42 40 38 37 35
35 39 47 53 60 48 47 50 52 50 55 53 55 56 55 53 51 50 50 52 52 55 56 59 63 67 69 70 74 76 75 72 70 69 68 65 64 61 58 56 52 50 49 47 46 46 45 44 42
39 42 52 63 59 57 59 62 65 55 55 60 62 62 64 66 66 66 64 61 62 65 65 66 67 72 75 75 75 75 79 80 80 79 80 80 80 78 76 73 68 64 61 59 61 61 60 55 52
51 48 60 72 66 68 47 61 57 56 60 62 68 70 72 73 78 80 79 79 68 69 67 75 76 75 78 81 79 76 76 81 83 83 83 83 82 81 75 75 74 72 73 74 74 74 75 73 69
60 56 60 68 70 58 47 66 72 72 79 77 78 77 74 71 74 73 75 75 76 78 84 86 80 81 80 77 80 83 90 92 92 90 89 85 83 80 75 73 73 72 72 72 72 68 66 64 64
54 57 69 77 81 68 59 64 77 77 79 87 88 76 73 71 69 70 71 70 68 65 69 75 81 83 83 80 78 78 81 79 79 78 75 72 69 67 68 69 69 69 66 65 64 62 61 58 56
58 63 73 83 84 79 74 68 69 80 90 92 90 85 79 73 73 70 69 69 70 74 76 78 81 85 84 82 86 87 90 88 87 84 78 73 69 71 69 68 67 65 63 62 61 59 57 55 53